• MPC Preparation (Info)

  • MPEC 2020-K83 : 2020 KP1

    The following Minor Planet Electronic Circular may be linked-to from your own Web pages, but must not otherwise be redistributed electronically.

    A form allowing access to any MPEC is at the bottom of this page.


    Read MPEC 2020-K82 Read MPEC 2020-K84


    M.P.E.C. 2020-K83                                  Issued 2020 May 20, 08:09 UT
    
         The Minor Planet Electronic Circulars contain information on unusual
             minor planets and routine data on comets.  They are published
        on behalf of Division F of the International Astronomical Union by the
              Minor Planet Center, Smithsonian Astrophysical Observatory,
                              Cambridge, MA 02138, U.S.A.
    
                 Prepared using the Tamkin Foundation Computer Network
    
                                  MPC@CFA.HARVARD.EDU
                URL https://www.minorplanetcenter.net/    ISSN 1523-6714
    
                                    2020 KP1                                 
    
    
    Observations:
         K20K01P  C2020 05 14.29946613 11 52.966-27 34 27.81         19.82GVEK083F51
         K20K01P  C2020 05 14.30909013 11 56.252-27 32 11.95         20.00GVEK083F51
         K20K01P  C2020 05 14.32859613 12 02.951-27 27 35.01               VEK083F51
         K20K01P* C2020 05 19.31716413 40 18.372-07 22 36.33         20.24wUEK083F52
         K20K01P  C2020 05 19.32959713 40 21.907-07 19 42.14         20.09wUEK083F52
         K20K01P  C2020 05 19.34202913 40 25.430-07 16 47.70         20.18wUEK083F52
         K20K01P KC2020 05 19.92786 13 43 24.11 -05 01 55.6          20.1 GUEK083I93
         K20K01P KC2020 05 19.93316 13 43 25.59 -05 00 43.5          19.8 GUEK083I93
         K20K01P KC2020 05 19.93761 13 43 26.89 -04 59 42.0          20.3 GUEK083I93
         K20K01P KC2020 05 19.97156513 43 36.70 -04 52 02.2          19.4 GVEK083J95
         K20K01P KC2020 05 19.97467913 43 37.60 -04 51 19.6          19.8 GVEK083J95
         K20K01P KC2020 05 19.97775513 43 38.44 -04 50 37.7          19.6 GVEK083J95
         K20K01P KC2020 05 19.98090613 43 39.36 -04 49 55.2          20.0 GVEK083J95
         K20K01P  C2020 05 20.17716 13 44 40.36 -04 05 10.8          20.7 GVEK083I52
         K20K01P  C2020 05 20.17758 13 44 40.52 -04 05 04.2          20.0 GVEK083I52
         K20K01P  C2020 05 20.17800 13 44 40.64 -04 04 58.7          20.0 GVEK083I52
         K20K01P  C2020 05 20.17842 13 44 40.75 -04 04 53.1          20.5 GVEK083I52
         K20K01P KC2020 05 20.18510 13 44 41.70 -04 03 27.9          20.6 GVEK083734
         K20K01P KC2020 05 20.18706 13 44 42.21 -04 02 59.3          20.2 GVEK083734
         K20K01P KC2020 05 20.18902 13 44 42.72 -04 02 34.4          20.2 GVEK083734
         K20K01P KC2020 05 20.19089 13 44 43.33 -04 02 08.3          21.2 GVEK083734
         K20K01P KC2020 05 20.23300213 44 55.60 -03 52 36.6          20.0 VqEK083858
         K20K01P KC2020 05 20.24806413 44 59.80 -03 49 13.2          20.3 VqEK083858
         K20K01P KC2020 05 20.26110713 45 03.39 -03 46 16.6          20.2 VqEK083858
    
    Observer details:
    734 Farpoint Observatory, Eskridge.  Observers G. Hug, D. Cromer, D. Goodin.
        Measurer D. Cromer.  0.7-m reflector + CCD.
    858 Tebbutt Observatory, Edgewood.  Observer F. B. Zoltowski.  0.51-m Schmidt-
        Cassegrain + CCD.
    F51 Pan-STARRS 1, Haleakala.  Observers J. Bulger, K. Chambers, T. Lowe, A.
        Schultz, M. Willman.  Measurers S. Chastel, M. Huber, Y. Ramanjooloo, R.
        Wainscoat, R. Weryk.  1.8-m Ritchey-Chretien + CCD.
    F52 Pan-STARRS 2, Haleakala.  Observers J. Bulger, T. Dukes, T. Lowe, A.
        Schultz, M. Willman.  Measurers K. Chambers, S. Chastel, T. de Boer, L.
        Denneau, J. Fairlamb, H. Flewelling, M. Huber, C.-C. Lin, E. Magnier, Y.
        Ramanjooloo, R. Wainscoat, R. Weryk.  1.8-m Ritchey-Chretien + CCD.
    I52 Steward Observatory, Mt. Lemmon Station.  Observer T. A. Pruyne.
        Measurers E. J. Christensen, G. A. Farneth, D. C. Fuls, A. R. Gibbs, A. D.
        Grauer, H. Groeller, R. A. Kowalski, S. M. Larson, G. J. Leonard, T. A.
        Pruyne, D. Rankin, R. L. Seaman, F. C. Shelly, K. W. Wierzchos.  1.0-m
        reflector + CCD.
    I93 St Pardon de Conques.  Observer F. Losse.  0.40-m f/3.7 reflector + CCD.
    J95 Great Shefford.  Observer P. Birtwhistle.  0.41-m f/6.3 Schmidt-Cassegrain
        + CCD.
    
    Orbital elements:
    2020 KP1                                                 Earth MOID = 0.1155 AU
    Epoch 2020 May 19.0 TT = JDT 2458988.5                  Bell                    
    M   3.06623              (2000.0)            P               Q                  
    n   0.48757315     Peri.  354.44376     -0.64782456     +0.63225096             
    a   1.5987339      Node   234.29835     -0.67722659     -0.73342204             
    e   0.2961576      Incl.   31.55345     -0.34883732     +0.24970150             
    P   2.02           H   23.16          G   0.15           U   9                  
    Residuals in seconds of arc
    200514 F51  0.0+  0.2+    200519 I93  0.1+  0.1+    200520 I52  0.1-  0.4-
    200514 F51  0.2-  0.2-    200519 J95  0.0-  0.1+    200520 734  0.2+  0.0-
    200514 F51  0.2+  0.0+    200519 J95  0.1+  0.1+    200520 734  0.3-  2.0+
    200519 F52  0.2-  0.2-    200519 J95  0.5-  0.1-    200520 734  0.8-  0.4+
    200519 F52  0.0-  0.1-    200519 J95  0.2-  0.7-    200520 734  0.5+  1.1+
    200519 F52  0.0+  0.3+    200520 I52  0.7-  1.0-    200520 858  0.3+  0.1-
    200519 I93  0.2-  0.0+    200520 I52  0.1-  0.1-    200520 858  0.7+  0.3-
    200519 I93  0.5-  0.4-    200520 I52  0.0-  0.3-    200520 858  0.3+  0.1+
    Ephemeris:
    2020 KP1                 a,e,i = 1.60, 0.30, 32                  q = 1.1253
    Date    TT    R. A. (2000) Decl.     Delta      r    Elong.  Phase     V
    2020 04 20    10 10 00.2 -71 24 39   0.2894  1.1428   111.5    54.9    22.8
    ...
    2020 05 05    12 05 31.3 -55 50 42   0.1734  1.1273   129.7    43.5    21.3
    ...
    2020 05 13    13 03 37.7 -32 34 26   0.1350  1.1253   146.3    29.9    20.4
    ...
    2020 05 19    13 38 38.7 -08 36 42   0.1332  1.1266   147.8    28.6    20.3
    2020 05 20    13 43 46.0 -04 44 51   0.1355  1.1271   146.2    30.0    20.4
    2020 05 21    13 48 41.9 -01 02 26   0.1385  1.1276   144.3    31.6    20.5
    ...
    2020 05 27    14 14 42.6 +16 54 04   0.1686  1.1323   131.6    42.0    21.2
    ...
    2020 06 04    14 41 50.5 +30 28 28   0.2276  1.1422   119.0    51.0    22.1
    ...
    2020 06 19    15 18 34.9 +40 14 04   0.3555  1.1713   107.1    56.0    23.3
    
    M. P. C. Staff               (C) Copyright 2020 MPC           M.P.E.C. 2020-K83
    


    Read MPEC 2020-K82 Read MPEC 2020-K84


    MPEC number:

    Enter an MPEC number in one of the following forms:

    • 1997-B01 (the full form)
    • J97B01 (the packed version of the full form)
    • B01 (the abbreviated form)